Flag for Germany Weather past 2 weeks in Tuttlingen, Baden-Württemberg, Germany

Now
47 °F

Rain showers. Low clouds.


Feels Like: 44 °F
Forecast: 39 / 49 °F
Wind: 6 mph from Northwest

Location: Konstanz

Current Time: Mar 30, 2015 at 9:27:09 AM

Latest Report: Mar 30, 2015 at 9:00 AM


Visibility: 1 mi

Pressure: 29.69 "Hg

Humidity: 100%

Dew point: 47 °F

Location of TuttlingenLocation

Historic Weather in Tuttlingen — Graph

°F

Tuttlingen temperature yesterday

Maximum temperature yesterday: 54 °F (at 12:00 PM)
Minimum temperature yesterday: 46 °F (at 1:00 AM)
Average temperature yesterday: 50 °F

Past Weeks' High & Low Weather Summary

 TemperatureHumidityPressure
High64 °F (Mar 18, 4:00 PM)100% (Mar 24, 6:00 AM)30.31 "Hg (Mar 24, 6:00 AM)
Low32 °F (Mar 15, 7:00 AM)31% (Mar 20, 5:00 PM)29.56 "Hg (Mar 25, 2:00 PM)
Average46 °F72%30.04 "Hg
* Reported Mar 15 7:00 AM — Mar 30 8:00 AM, Tuttlingen, Weather by CustomWeather, © 2015

Note: Actual official high and low records may vary slightly from our data, if they occured in-between our weather recording intervals... More about our weather records

Advertising

Tuttlingen weather history for previous 24 hours

 ConditionsComfort  
Time TempWeatherWind HumidityBarometerVisibility
8:00 AM
Mon, Mar 30
49 °FLight rain. Overcast.12 mph87%29.63 "Hg11 mi
7:00 AM48 °FRain. Overcast.12 mph88%29.62 "Hg7 mi
6:00 AM48 °FLight rain. Overcast.9 mph87%29.63 "Hg11 mi
4:00 AM48 °FLight freezing rain. Overcast.9 mph85%29.64 "Hg19 mi
3:00 AM49 °FLight rain. Overcast.9 mph85%29.67 "Hg9 mi
2:00 AM49 °FLight freezing rain. Overcast.10 mph85%29.68 "Hg31 mi
1:00 AM49 °FLight rain. Overcast.10 mph88%29.70 "Hg14 mi
12:00 AM49 °FLight rain. Overcast.12 mph86%29.71 "Hg13 mi
11:00 PM
Sun, Mar 29
49 °FLight rain. Overcast.12 mph86%29.74 "Hg9 mi
10:00 PM50 °FLight freezing rain. Overcast.13 mph84%29.74 "Hg25 mi
9:00 PM50 °FLight rain. Overcast.12 mph81%29.75 "Hg9 mi
8:00 PM50 °FLight rain. Overcast.10 mph81%29.77 "Hg9 mi
7:00 PM51 °FLight rain. Overcast.10 mph71%29.78 "Hg11 mi
6:00 PM50 °FLight rain. Overcast.10 mph79%29.82 "Hg11 mi
5:00 PM50 °FLight rain. Overcast.8 mph77%29.83 "Hg19 mi
4:00 PM51 °FLight rain. Overcast.9 mph73%29.85 "Hg22 mi
3:00 PM50 °FLight rain. Overcast.7 mph81%29.88 "Hg19 mi
2:00 PM53 °FLight rain. Overcast.8 mph68%29.86 "Hg25 mi
1:00 PM53 °FLight rain. Overcast.8 mph67%29.88 "Hg37 mi
12:00 PM54 °FOvercast.10 mph63%29.89 "Hg37 mi
11:00 AM52 °FOvercast.8 mph69%29.93 "Hg37 mi
10:00 AM51 °FOvercast.5 mph72%29.95 "Hg37 mi
9:00 AM49 °FOvercast.5 mph76%29.97 "Hg28 mi
Weather by CustomWeather, © 2015

See weather overviewHow to use our weather pages